Location: Antioch Baptist Church
(32.6696°N, 85.7327°W)
Time: 20:32:24
(UTC+00:00)

Cosmos 676 Rocket - Pass Details

Date: 14 July 2020
Orbit: 753 x 785 km, 74.0° (Epoch: 13 August)

Event Time Altitude Azimuth Distance (km) Brightness Sun altitude
Exits shadow 07:57:52 56° 317° (NW) 909 4.3 -27.6°
Drops below altitude 10° 08:02:32 10° 8° (N) 2,324 7.3 -27.1°
Sets 08:04:58 0° 13° (NNE) 3,259 8.3 -26.8°
